Carlyle Lake Weather Center

Moon Phase Calendar



Carlyle Lake Water Level
Online Cameras

 


      

Current Conditions in Carlyle
10/22/2020 11:45:33 PM

69°F
Feels Like 74
Clear
Humidity
84%
Pressure
29.88"
Wind
1 mph (S)
Dew Point
64°F
UV Index
4/10 (Moderate)
Visibility
6 mi

Hourly Forecast

Date & Time Thu, Oct 22
11:00 PM
Fri, Oct 23
12:00 AM
Fri, Oct 23
1:00 AM
Fri, Oct 23
2:00 AM
Fri, Oct 23
3:00 AM
Fri, Oct 23
4:00 AM
Fri, Oct 23
5:00 AM
Fri, Oct 23
6:00 AM
Fri, Oct 23
7:00 AM
Fri, Oct 23
8:00 AM
Fri, Oct 23
9:00 AM
Fri, Oct 23
10:00 AM
Fri, Oct 23
11:00 AM
Fri, Oct 23
12:00 PM
Fri, Oct 23
1:00 PM
Fri, Oct 23
2:00 PM
Fri, Oct 23
3:00 PM
Fri, Oct 23
4:00 PM
Fri, Oct 23
5:00 PM
Fri, Oct 23
6:00 PM
Fri, Oct 23
7:00 PM
Fri, Oct 23
8:00 PM
Fri, Oct 23
9:00 PM
Fri, Oct 23
10:00 PM
Fri, Oct 23
11:00 PM
Sat, Oct 24
12:00 AM
Sat, Oct 24
1:00 AM
Sat, Oct 24
2:00 AM
Sat, Oct 24
3:00 AM
Sat, Oct 24
4:00 AM
Sat, Oct 24
5:00 AM
Sat, Oct 24
6:00 AM
Sat, Oct 24
7:00 AM
Sat, Oct 24
8:00 AM
Sat, Oct 24
9:00 AM
Sat, Oct 24
10:00 AM
Sat, Oct 24
11:00 AM
Sat, Oct 24
12:00 PM
Sat, Oct 24
1:00 PM
Sat, Oct 24
2:00 PM
Sat, Oct 24
3:00 PM
Sat, Oct 24
4:00 PM
Sat, Oct 24
5:00 PM
Sat, Oct 24
6:00 PM
Sat, Oct 24
7:00 PM
Sat, Oct 24
8:00 PM
Sat, Oct 24
9:00 PM
Sat, Oct 24
10:00 PM
Condition
Clear

Clear

Clear

Clear

Clear

Clear

Clear

Rain

Rain

Rain

Rain

Clouds

Rain

Clouds

Clouds

Clouds

Clouds

Clouds

Clouds

Clouds

Clouds

Clouds

Clouds

Clouds

Clouds

Clouds

Clouds

Clouds

Clouds

Clouds

Clouds

Clouds

Clouds

Clouds

Clouds

Clouds

Clouds

Clouds

Clouds

Clouds

Clouds

Clouds

Clouds

Clouds

Clouds

Clouds

Clouds

Clouds
Temperature 69°F69°F68°F67°F66°F66°F66°F66°F65°F65°F68°F69°F61°F60°F58°F57°F56°F55°F53°F50°F48°F48°F48°F47°F47°F47°F46°F45°F44°F44°F42°F41°F41°F41°F43°F46°F48°F51°F53°F54°F55°F54°F53°F52°F52°F51°F50°F50°F
Feels Like 67°F67°F67°F66°F66°F65°F65°F65°F64°F64°F66°F67°F56°F52°F49°F48°F47°F45°F42°F39°F38°F37°F38°F37°F37°F37°F35°F34°F33°F33°F32°F32°F32°F32°F33°F35°F38°F41°F44°F46°F47°F47°F47°F46°F45°F42°F41°F40°F
Cloudiness 0%0%0%0%0%0%0%0%0%100%100%100%100%100%100%100%100%100%100%100%87%88%95%96%97%98%98%100%100%100%82%71%62%31%28%25%38%39%41%84%77%85%89%89%91%100%100%100%
Visibility 6 mi6 mi6 mi6 mi6 mi6 mi6 mi6 mi6 mi6 mi6 mi6 mi6 mi6 mi6 mi6 mi6 mi6 mi6 mi6 mi6 mi6 mi6 mi6 mi6 mi6 mi6 mi6 mi6 mi6 mi6 mi6 mi6 mi6 mi6 mi6 mi6 mi6 mi6 mi6 mi6 mi6 mi6 mi6 mi6 mi6 mi6 mi6 mi
Precipitation 0%0%0%38%39%47%50%69%90%100%100%80%100%80%80%0%0%0%0%0%0%0%0%0%0%0%0%0%0%0%0%0%0%0%0%0%0%0%0%0%0%0%0%0%0%0%0%0%
Humidity 84%86%88%92%93%93%93%94%95%94%87%84%86%81%76%73%71%70%70%71%70%67%66%68%69%68%67%67%67%68%71%73%73%72%69%65%62%58%57%56%55%57%61%63%61%58%59%59%
Dew Point 64°F64°F64°F64°F64°F64°F64°F64°F63°F64°F65°F65°F57°F54°F51°F49°F47°F46°F44°F41°F39°F38°F38°F37°F38°F37°F36°F35°F34°F34°F34°F33°F33°F33°F34°F35°F36°F37°F38°F38°F39°F39°F40°F40°F39°F37°F37°F36°F
Pressure 29.88"29.91"29.94"29.94"29.94"29.91"29.91"29.91"29.94"29.94"30"30"30.03"30.03"30.06"30.06"30.06"30.09"30.12"30.12"30.18"30.21"30.21"30.24"30.24"30.24"30.24"30.24"30.24"30.24"30.24"30.24"30.24"30.24"30.27"30.24"30.24"30.21"30.18"30.15"30.12"30.12"30.09"30.09"30.12"30.12"30.12"30.12"
Wind Speed 12.2 mph11.4 mph10.2 mph9.6 mph10.5 mph11.2 mph10.7 mph10.2 mph10 mph10.6 mph12.6 mph12.5 mph13.2 mph15.9 mph16.5 mph16.2 mph16.1 mph16.6 mph16.4 mph15.9 mph14.6 mph14.7 mph14.2 mph13.8 mph13.1 mph13 mph14 mph14.4 mph14.2 mph13.8 mph11.9 mph11.2 mph9.7 mph10.5 mph12.1 mph12.5 mph12.6 mph11.6 mph10.9 mph9 mph8.7 mph8.7 mph7.6 mph7.2 mph8.1 mph10.8 mph11.7 mph12 mph
Wind
Direction
182°
S
188°
S
196°
SSW
196°
SSW
192°
SSW
193°
SSW
200°
SSW
202°
SSW
208°
SSW
202°
SSW
224°
SW
270°
W
323°
NW
310°
NW
324°
NW
329°
NNW
332°
NNW
345°
NNW
347°
NNW
344°
NNW
349°
N
356°
N
355°
N
356°
N

N

N

N
11°
N
15°
NNE
14°
NNE
14°
NNE
19°
NNE
26°
NNE
27°
NNE
35°
NE
39°
NE
46°
NE
47°
NE
53°
NE
55°
NE
55°
NE
58°
ENE
56°
NE
57°
ENE
53°
NE
58°
ENE
61°
ENE
64°
ENE

Daily Forecast

Date High Low Precip. Humidity
Today
Oct 22

Clear
79 °F
60 °F
40%
65%
Friday
Oct 23

Rain
69 °F
47 °F
100%
76%
Saturday
Oct 24

Clouds
54 °F
41 °F
0%
57%
Sunday
Oct 25

Clouds
52 °F
48 °F
0%
74%
Monday
Oct 26

Rain
49 °F
45 °F
100%
93%
Tuesday
Oct 27

Rain
45 °F
42 °F
100%
93%
Wednesday
Oct 28

Rain
49 °F
40 °F
100%
69%
Thursday
Oct 29

Rain
57 °F
39 °F
61%
50%
Friday
Oct 30

Rain
53 °F
41 °F
96%
60%
Saturday
Oct 31

Clear
54 °F
37 °F
0%
58%
Sunday
Nov 1

Clear
55 °F
37 °F
0%
64%
Monday
Nov 2

Clouds
52 °F
46 °F
0%
64%
Tuesday
Nov 3

Clear
54 °F
38 °F
0%
52%
Wednesday
Nov 4

Clear
56 °F
39 °F
0%
54%
Thursday
Nov 5

Clear
65 °F
42 °F
0%
65%
Friday
Nov 6

Clear
62 °F
50 °F
0%
52%


Temperature 8-14 Day Outlook



Precipitation 8-14 Day Outlook




Quick Links
Carlyle Lake News
Carlyle Lake Photos
Carlyle Lake Videos




About Us
Contact Us
Site Map
Search Site
Advertise With Us
   
Carlyle.USLakes.info
THE CARLYLE LAKE WEBSITE

Copyright 2020, Lakes Online
Privacy    |    Legal